| time (UTC) | temp F | wind direction | speed MPH | gust MPH | rain 1hr in | rain 24hr in | rain mn in | humidity % | barometer mb |
| 20260831030320 | 74 | 49 | 1.0 | 1.0 | 0.00 | 0.00 | 0.00 | 73 | 1011.1 |
| 20260831025814 | 74 | 55 | 1.0 | 1.0 | 0.00 | 0.00 | 0.00 | 72 | 1011.1 |
| 20260831025308 | 74 | 55 | 1.0 | 1.0 | 0.00 | 0.00 | 0.00 | 73 | 1011.1 |
| 20260831024804 | 74 | 55 | 1.0 | 1.0 | 0.00 | 0.00 | 0.00 | 73 | 1011.1 |
| 20260831024303 | 74 | 55 | 1.0 | 1.0 | 0.00 | 0.00 | 0.00 | 73 | 1011.1 |
| 20260831023802 | 74 | 89 | 0.0 | 1.0 | 0.00 | 0.00 | 0.00 | 73 | 1011.1 |
| 20260831023301 | 74 | 66 | 0.0 | 0.0 | 0.00 | 0.00 | 0.00 | 72 | 1011.5 |
| 20260831022756 | 74 | 37 | 0.0 | 0.0 | 0.00 | 0.00 | 0.00 | 72 | 1011.1 |
| 20260831022255 | 74 | 49 | 1.0 | 1.0 | 0.00 | 0.00 | 0.00 | 72 | 1011.1 |
| 20260831021750 | 73 | 49 | 0.0 | 0.0 | 0.00 | 0.00 | 0.00 | 72 | 1011.5 |
| 20260831021250 | 73 | 49 | 0.0 | 1.0 | 0.00 | 0.00 | 0.00 | 73 | 1011.8 |
| 20260831020747 | 73 | 49 | 0.0 | 1.0 | 0.00 | 0.00 | 0.00 | 73 | 1011.1 |
| 20260831020245 | 73 | 49 | 0.0 | 0.0 | 0.00 | 0.00 | 0.00 | 74 | 1011.5 |
| 20260831015741 | 73 | 49 | 0.0 | 0.0 | 0.00 | 0.00 | 0.00 | 75 | 1011.1 |
| 20260831015236 | 73 | 49 | 1.0 | 1.0 | 0.00 | 0.00 | 0.00 | 75 | 1011.1 |
| 20260831014731 | 74 | 49 | 0.0 | 1.0 | 0.00 | 0.00 | 0.00 | 76 | 1011.1 |
| 20260831014226 | 74 | 49 | 2.0 | 2.0 | 0.00 | 0.00 | 0.00 | 75 | 1011.1 |
| 20260831013722 | 74 | 45 | 2.0 | 3.0 | 0.00 | 0.00 | 0.00 | 76 | 1011.1 |
| 20260831013221 | 74 | 53 | 0.0 | 0.0 | 0.00 | 0.00 | 0.00 | 76 | 1011.1 |
| 20260831012716 | 74 | 37 | 0.0 | 0.0 | 0.00 | 0.00 | 0.00 | 76 | 1011.1 |
| 20260831012212 | 74 | 37 | 0.0 | 0.0 | 0.00 | 0.00 | 0.00 | 76 | 1011.1 |
| 20260831011711 | 74 | 37 | 0.0 | 0.0 | 0.00 | 0.00 | 0.00 | 75 | 1010.8 |
| 20260831011207 | 74 | 33 | 0.0 | 0.0 | 0.00 | 0.00 | 0.00 | 75 | 1010.8 |
| 20260831010702 | 74 | 91 | 0.0 | 1.0 | 0.00 | 0.00 | 0.00 | 75 | 1010.8 |
| 20260831010157 | 74 | 91 | 0.0 | 0.0 | 0.00 | 0.00 | 0.00 | 75 | 1010.8 |
| 20260831005657 | 74 | 91 | 0.0 | 1.0 | 0.00 | 0.00 | 0.00 | 75 | 1010.8 |
| 20260831005153 | 74 | 78 | 1.0 | 2.0 | 0.00 | 0.00 | 0.00 | 76 | 1010.8 |
| 20260831004648 | 74 | 353 | 1.0 | 1.0 | 0.00 | 0.00 | 0.00 | 76 | 1010.8 |
| 20260831004144 | 74 | 44 | 0.0 | 0.0 | 0.00 | 0.00 | 0.00 | 76 | 1010.8 |
| 20260831003640 | 74 | 74 | 0.0 | 0.0 | 0.00 | 0.00 | 0.00 | 76 | 1010.8 |
| 20260831003136 | 75 | 5 | 0.0 | 0.0 | 0.00 | 0.00 | 0.00 | 77 | 1010.8 |
| 20260831002634 | 75 | 358 | 0.0 | 0.0 | 0.00 | 0.00 | 0.00 | 77 | 1010.8 |
| 20260831002129 | 75 | 349 | 0.0 | 1.0 | 0.00 | 0.00 | 0.00 | 77 | 1011.1 |
| 20260831001625 | 75 | 42 | 1.0 | 1.0 | 0.00 | 0.00 | 0.00 | 77 | 1010.8 |
| 20260831001121 | 75 | 28 | 0.0 | 1.0 | 0.00 | 0.00 | 0.00 | 77 | 1010.8 |
| 20260831000618 | 76 | 49 | 0.0 | 1.0 | 0.00 | 0.00 | 0.00 | 77 | 1010.8 |
| 20260831000117 | 76 | 49 | 0.0 | 0.0 | 0.00 | 0.00 | 0.00 | 77 | 1010.5 |
| 20260830235616 | 76 | 49 | 1.0 | 1.0 | 0.00 | 0.00 | 0.00 | 78 | 1010.8 |
| 20260830235111 | 77 | 49 | 0.0 | 1.0 | 0.00 | 0.00 | 0.00 | 78 | 1010.5 |
| 20260830234606 | 77 | 49 | 0.0 | 0.0 | 0.00 | 0.00 | 0.00 | 78 | 1010.5 |
| 20260830234101 | 77 | 49 | 0.0 | 0.0 | 0.00 | 0.00 | 0.00 | 77 | 1010.1 |
| 20260830233556 | 77 | 49 | 0.0 | 0.0 | 0.00 | 0.00 | 0.00 | 76 | 1010.1 |
| 20260830233052 | 77 | 49 | 0.0 | 0.0 | 0.00 | 0.00 | 0.00 | 76 | 1009.8 |
| 20260830232548 | 78 | 49 | 0.0 | 0.0 | 0.00 | 0.00 | 0.00 | 75 | 1009.8 |
| 20260830232044 | 78 | 49 | 0.0 | 0.0 | 0.00 | 0.00 | 0.00 | 75 | 1010.1 |
| 20260830231539 | 78 | 49 | 0.0 | 0.0 | 0.00 | 0.00 | 0.00 | 74 | 1010.1 |
| 20260830231038 | 79 | 49 | 0.0 | 0.0 | 0.00 | 0.00 | 0.00 | 74 | 1010.5 |
| 20260830230534 | 79 | 50 | 0.0 | 0.0 | 0.00 | 0.00 | 0.00 | 72 | 1010.1 |
| 20260830230029 | 79 | 50 | 0.0 | 0.0 | 0.00 | 0.00 | 0.00 | 71 | 1010.1 |
| 20260830225524 | 79 | 50 | 0.0 | 0.0 | 0.00 | 0.00 | 0.00 | 71 | 1010.1 |
| 20260830225023 | 80 | 50 | 0.0 | 0.0 | 0.00 | 0.00 | 0.00 | 71 | 1010.1 |
| 20260830224522 | 80 | 50 | 0.0 | 0.0 | 0.00 | 0.00 | 0.00 | 70 | 1009.8 |
| 20260830224019 | 81 | 50 | 0.0 | 0.0 | 0.00 | 0.00 | 0.00 | 71 | 1010.1 |
| 20260830223516 | 81 | 50 | 0.0 | 0.0 | 0.00 | 0.00 | 0.00 | 70 | 1009.8 |
| 20260830223015 | 81 | 56 | 0.0 | 0.0 | 0.00 | 0.00 | 0.00 | 71 | 1010.1 |
| 20260830222510 | 81 | 56 | 0.0 | 1.0 | 0.00 | 0.00 | 0.00 | 69 | 1009.4 |
| 20260830222006 | 81 | 87 | 0.0 | 0.0 | 0.00 | 0.00 | 0.00 | 67 | 1009.8 |
| 20260830221502 | 82 | 87 | 0.0 | 0.0 | 0.00 | 0.00 | 0.00 | 66 | 1010.1 |
| 20260830220958 | 82 | 76 | 1.0 | 1.0 | 0.00 | 0.00 | 0.00 | 64 | 1009.8 |
| 20260830220457 | 82 | 43 | 0.0 | 0.0 | 0.00 | 0.00 | 0.00 | 67 | 1010.1 |
| 20260830215954 | 82 | 38 | 0.0 | 0.0 | 0.00 | 0.00 | 0.00 | 66 | 1010.1 |
| 20260830215450 | 82 | 281 | 1.0 | 2.0 | 0.00 | 0.00 | 0.00 | 68 | 1010.1 |
| 20260830214944 | 82 | 19 | 0.0 | 1.0 | 0.00 | 0.00 | 0.00 | 65 | 1010.1 |
| 20260830214440 | 82 | 357 | 0.0 | 0.0 | 0.00 | 0.00 | 0.00 | 67 | 1009.8 |
| 20260830213934 | 83 | 357 | 0.0 | 0.0 | 0.00 | 0.00 | 0.00 | 66 | 1009.8 |
| 20260830213430 | 84 | 292 | 1.0 | 1.0 | 0.00 | 0.00 | 0.00 | 65 | 1009.8 |
| 20260830212925 | 84 | 59 | 0.0 | 0.0 | 0.00 | 0.00 | 0.00 | 65 | 1009.4 |
| 20260830212421 | 84 | 59 | 1.0 | 2.0 | 0.00 | 0.00 | 0.00 | 63 | 1009.8 |
| 20260830211920 | 85 | 59 | 0.0 | 0.0 | 0.00 | 0.00 | 0.00 | 62 | 1009.4 |
| 20260830211415 | 84 | 357 | 0.0 | 0.0 | 0.00 | 0.00 | 0.00 | 60 | 1009.4 |
| 20260830210911 | 84 | 56 | 1.0 | 2.0 | 0.00 | 0.00 | 0.00 | 58 | 1009.4 |
| 20260830210409 | 84 | 104 | 0.0 | 0.0 | 0.00 | 0.00 | 0.00 | 61 | 1009.4 |
| 20260830205907 | 83 | 65 | 0.0 | 1.0 | 0.00 | 0.00 | 0.00 | 57 | 1009.4 |
| 20260830205406 | 83 | 142 | 1.0 | 2.0 | 0.00 | 0.00 | 0.00 | 60 | 1009.4 |
| 20260830204902 | 83 | 299 | 1.0 | 1.0 | 0.00 | 0.00 | 0.00 | 59 | 1009.4 |
| 20260830204401 | 83 | 53 | 0.0 | 0.0 | 0.00 | 0.00 | 0.00 | 62 | 1009.8 |
| 20260830203856 | 83 | 53 | 1.0 | 1.0 | 0.00 | 0.00 | 0.00 | 63 | 1009.8 |
| 20260830203353 | 83 | 69 | 0.0 | 1.0 | 0.00 | 0.00 | 0.00 | 62 | 1009.8 |
| 20260830202851 | 84 | 135 | 1.0 | 1.0 | 0.00 | 0.00 | 0.00 | 62 | 1009.8 |
| 20260830202347 | 84 | 177 | 0.0 | 0.0 | 0.00 | 0.00 | 0.00 | 60 | 1009.8 |
| 20260830201842 | 84 | 102 | 0.0 | 0.0 | 0.00 | 0.00 | 0.00 | 63 | 1009.8 |
| 20260830201337 | 84 | 154 | 0.0 | 1.0 | 0.00 | 0.00 | 0.00 | 62 | 1009.8 |
| 20260830200832 | 83 | 95 | 0.0 | 0.0 | 0.00 | 0.00 | 0.00 | 62 | 1010.1 |
| 20260830200331 | 83 | 241 | 0.0 | 1.0 | 0.00 | 0.00 | 0.00 | 61 | 1010.1 |
| 20260830195827 | 83 | 89 | 0.0 | 1.0 | 0.00 | 0.00 | 0.00 | 61 | 1010.1 |
| 20260830195326 | 83 | 22 | 0.0 | 0.0 | 0.00 | 0.00 | 0.00 | 61 | 1010.1 |
| 20260830194819 | 83 | 258 | 1.0 | 1.0 | 0.00 | 0.00 | 0.00 | 62 | 1010.1 |
| 20260830194318 | 83 | 280 | 0.0 | 1.0 | 0.00 | 0.00 | 0.00 | 64 | 1010.1 |
| 20260830193814 | 83 | 256 | 0.0 | 0.0 | 0.00 | 0.00 | 0.00 | 63 | 1010.5 |
| 20260830193307 | 83 | 125 | 0.0 | 1.0 | 0.00 | 0.00 | 0.00 | 63 | 1010.1 |
| 20260830192804 | 83 | 121 | 0.0 | 0.0 | 0.00 | 0.00 | 0.00 | 62 | 1010.1 |
| 20260830192305 | 83 | 220 | 0.0 | 0.0 | 0.00 | 0.00 | 0.00 | 60 | 1010.5 |
| 20260830191759 | 83 | 99 | 0.0 | 1.0 | 0.00 | 0.00 | 0.00 | 60 | 1010.5 |
| 20260830191258 | 82 | 246 | 2.0 | 3.0 | 0.00 | 0.00 | 0.00 | 61 | 1010.5 |
| 20260830190755 | 82 | 294 | 2.0 | 2.0 | 0.00 | 0.00 | 0.00 | 63 | 1010.5 |
| 20260830190250 | 82 | 101 | 2.0 | 2.0 | 0.00 | 0.00 | 0.00 | 61 | 1010.1 |
| 20260830185748 | 82 | 255 | 2.0 | 2.0 | 0.00 | 0.00 | 0.00 | 63 | 1010.5 |
| 20260830185243 | 82 | 127 | 0.0 | 0.0 | 0.00 | 0.00 | 0.00 | 63 | 1010.1 |
| 20260830184743 | 82 | 121 | 0.0 | 0.0 | 0.00 | 0.00 | 0.00 | 64 | 1009.8 |
| 20260830184242 | 81 | 49 | 1.0 | 1.0 | 0.00 | 0.00 | 0.00 | 65 | 1010.1 |
| 20260830183738 | 81 | 69 | 0.0 | 0.0 | 0.00 | 0.00 | 0.00 | 67 | 1009.8 |
| 20260830183233 | 81 | 157 | 1.0 | 2.0 | 0.00 | 0.00 | 0.00 | 63 | 1010.1 |
| 20260830182727 | 81 | 120 | 0.0 | 1.0 | 0.00 | 0.00 | 0.00 | 65 | 1010.1 |
| 20260830182224 | 81 | 54 | 0.0 | 1.0 | 0.00 | 0.00 | 0.00 | 65 | 1010.1 |
| 20260830181720 | 81 | 54 | 0.0 | 0.0 | 0.00 | 0.00 | 0.00 | 65 | 1010.1 |
| 20260830181215 | 81 | 54 | 0.0 | 0.0 | 0.00 | 0.00 | 0.00 | 65 | 1010.5 |
| 20260830180713 | 81 | 54 | 0.0 | 0.0 | 0.00 | 0.00 | 0.00 | 64 | 1010.5 |
| 20260830180208 | 80 | 54 | 0.0 | 0.0 | 0.00 | 0.00 | 0.00 | 64 | 1010.5 |
| 20260830175707 | 80 | 54 | 0.0 | 0.0 | 0.00 | 0.00 | 0.00 | 64 | 1010.1 |
| 20260830175157 | 80 | 54 | 0.0 | 0.0 | 0.00 | 0.00 | 0.00 | 63 | 1010.1 |
| 20260830174652 | 79 | 54 | 0.0 | 0.0 | 0.00 | 0.00 | 0.00 | 64 | 1010.1 |
| 20260830174148 | 79 | 54 | 0.0 | 1.0 | 0.00 | 0.00 | 0.00 | 64 | 1010.1 |
| 20260830173648 | 79 | 54 | 0.0 | 0.0 | 0.00 | 0.00 | 0.00 | 67 | 1010.1 |
| 20260830173143 | 79 | 54 | 0.0 | 0.0 | 0.00 | 0.00 | 0.00 | 68 | 1010.5 |
| 20260830172640 | 79 | 53 | 0.0 | 0.0 | 0.00 | 0.00 | 0.00 | 67 | 1010.8 |
| 20260830172136 | 79 | 30 | 1.0 | 1.0 | 0.00 | 0.00 | 0.00 | 68 | 1010.8 |
| 20260830171636 | 79 | 161 | 1.0 | 1.0 | 0.00 | 0.00 | 0.00 | 66 | 1010.8 |
| 20260830171131 | 79 | 1 | 0.0 | 0.0 | 0.00 | 0.00 | 0.00 | 69 | 1011.1 |
| 20260830170626 | 78 | 125 | 0.0 | 1.0 | 0.00 | 0.00 | 0.00 | 67 | 1011.5 |
| 20260830170125 | 78 | 214 | 0.0 | 0.0 | 0.00 | 0.00 | 0.00 | 67 | 1011.1 |
| 20260830165619 | 79 | 277 | 1.0 | 2.0 | 0.00 | 0.00 | 0.00 | 66 | 1011.1 |
| 20260830165115 | 79 | 229 | 1.0 | 2.0 | 0.00 | 0.00 | 0.00 | 67 | 1011.1 |
| 20260830164611 | 79 | 183 | 1.0 | 2.0 | 0.00 | 0.00 | 0.00 | 68 | 1011.1 |
| 20260830164107 | 79 | 309 | 0.0 | 1.0 | 0.00 | 0.00 | 0.00 | 70 | 1011.1 |
| 20260830163604 | 80 | 262 | 1.0 | 1.0 | 0.00 | 0.00 | 0.00 | 71 | 1011.1 |
| 20260830163103 | 81 | 355 | 1.0 | 1.0 | 0.00 | 0.00 | 0.00 | 69 | 1010.5 |
| 20260830162559 | 81 | 87 | 0.0 | 1.0 | 0.00 | 0.00 | 0.00 | 65 | 1010.5 |
| 20260830162055 | 81 | 88 | 0.0 | 1.0 | 0.00 | 0.00 | 0.00 | 66 | 1010.5 |
| 20260830161554 | 81 | 88 | 0.0 | 0.0 | 0.00 | 0.00 | 0.00 | 65 | 1010.1 |
| 20260830161049 | 81 | 88 | 0.0 | 0.0 | 0.00 | 0.00 | 0.00 | 64 | 1009.8 |
| 20260830160545 | 81 | 88 | 0.0 | 0.0 | 0.00 | 0.00 | 0.00 | 63 | 1009.8 |
| 20260830160040 | 80 | 88 | 0.0 | 0.0 | 0.00 | 0.00 | 0.00 | 63 | 1009.8 |
| 20260830155537 | 79 | 89 | 0.0 | 0.0 | 0.00 | 0.00 | 0.00 | 62 | 1009.8 |
| 20260830155032 | 79 | 14 | 0.0 | 0.0 | 0.00 | 0.00 | 0.00 | 64 | 1009.8 |
| 20260830154527 | 78 | 54 | 0.0 | 0.0 | 0.00 | 0.00 | 0.00 | 67 | 1009.4 |
| 20260830154023 | 78 | 53 | 0.0 | 0.0 | 0.00 | 0.00 | 0.00 | 68 | 1009.4 |
| 20260830153520 | 78 | 54 | 0.0 | 0.0 | 0.00 | 0.00 | 0.00 | 68 | 1009.4 |
| 20260830153019 | 78 | 54 | 0.0 | 0.0 | 0.00 | 0.00 | 0.00 | 68 | 1009.4 |
| 20260830152513 | 78 | 54 | 0.0 | 0.0 | 0.00 | 0.00 | 0.00 | 68 | 1009.4 |
| 20260830152012 | 78 | 54 | 0.0 | 0.0 | 0.00 | 0.00 | 0.00 | 68 | 1009.4 |
| 20260830151507 | 78 | 54 | 0.0 | 0.0 | 0.00 | 0.00 | 0.00 | 69 | 1009.4 |
| 20260830151002 | 77 | 54 | 0.0 | 0.0 | 0.00 | 0.00 | 0.00 | 69 | 1009.4 |
| 20260830150502 | 77 | 53 | 0.0 | 0.0 | 0.00 | 0.00 | 0.00 | 68 | 1009.8 |
| 20260830150001 | 77 | 54 | 0.0 | 0.0 | 0.00 | 0.00 | 0.00 | 70 | 1009.4 |
| 20260830145456 | 76 | 53 | 0.0 | 0.0 | 0.00 | 0.00 | 0.00 | 69 | 1009.4 |
| 20260830144951 | 76 | 54 | 0.0 | 0.0 | 0.00 | 0.00 | 0.00 | 70 | 1009.8 |
| 20260830144447 | 75 | 37 | 0.0 | 0.0 | 0.00 | 0.00 | 0.00 | 69 | 1009.4 |
| 20260830143942 | 75 | 53 | 0.0 | 1.0 | 0.00 | 0.00 | 0.00 | 70 | 1009.4 |
| 20260830143438 | 75 | 53 | 0.0 | 0.0 | 0.00 | 0.00 | 0.00 | 71 | 1009.4 |
| 20260830142936 | 74 | 53 | 0.0 | 0.0 | 0.00 | 0.00 | 0.00 | 71 | 1009.4 |
| 20260830142432 | 74 | 53 | 0.0 | 0.0 | 0.00 | 0.00 | 0.00 | 72 | 1009.4 |
| 20260830141926 | 73 | 53 | 1.0 | 1.0 | 0.00 | 0.00 | 0.00 | 72 | 1009.4 |
| 20260830141422 | 73 | 53 | 0.0 | 0.0 | 0.00 | 0.00 | 0.00 | 74 | 1009.4 |
| 20260830140917 | 73 | 53 | 0.0 | 0.0 | 0.00 | 0.00 | 0.00 | 74 | 1009.4 |
| 20260830140412 | 72 | 53 | 0.0 | 0.0 | 0.00 | 0.00 | 0.00 | 74 | 1009.4 |
| 20260830135911 | 72 | 53 | 1.0 | 1.0 | 0.00 | 0.00 | 0.00 | 75 | 1009.4 |
| 20260830135407 | 72 | 53 | 0.0 | 0.0 | 0.00 | 0.00 | 0.00 | 76 | 1009.4 |
| 20260830134902 | 71 | 53 | 0.0 | 0.0 | 0.00 | 0.00 | 0.00 | 76 | 1009.4 |
| 20260830134357 | 71 | 53 | 0.0 | 0.0 | 0.00 | 0.00 | 0.00 | 77 | 1009.4 |
| 20260830133853 | 71 | 53 | 0.0 | 0.0 | 0.00 | 0.00 | 0.00 | 78 | 1009.8 |
| 20260830133348 | 71 | 53 | 0.0 | 0.0 | 0.00 | 0.00 | 0.00 | 79 | 1009.8 |
| 20260830132843 | 70 | 53 | 0.0 | 0.0 | 0.00 | 0.00 | 0.00 | 79 | 1009.4 |
| 20260830132339 | 70 | 53 | 0.0 | 0.0 | 0.00 | 0.00 | 0.00 | 79 | 1009.4 |
| 20260830131839 | 70 | 53 | 1.0 | 1.0 | 0.00 | 0.00 | 0.00 | 80 | 1009.8 |
| 20260830131339 | 70 | 53 | 0.0 | 0.0 | 0.00 | 0.00 | 0.00 | 80 | 1009.8 |
| 20260830130834 | 70 | 53 | 0.0 | 0.0 | 0.00 | 0.00 | 0.00 | 81 | 1009.8 |
| 20260830130329 | 69 | 53 | 0.0 | 0.0 | 0.00 | 0.00 | 0.00 | 81 | 1009.8 |
| 20260830125828 | 69 | 53 | 0.0 | 0.0 | 0.00 | 0.00 | 0.00 | 81 | 1009.4 |
| 20260830125324 | 69 | 53 | 0.0 | 0.0 | 0.00 | 0.00 | 0.00 | 82 | 1009.8 |
| 20260830124821 | 69 | 53 | 0.0 | 0.0 | 0.00 | 0.00 | 0.00 | 82 | 1009.8 |
| 20260830124316 | 69 | 53 | 0.0 | 0.0 | 0.00 | 0.00 | 0.00 | 82 | 1009.4 |
| 20260830123813 | 69 | 53 | 0.0 | 0.0 | 0.00 | 0.00 | 0.00 | 82 | 1009.4 |
| 20260830123309 | 68 | 53 | 0.0 | 0.0 | 0.00 | 0.00 | 0.00 | 82 | 1009.8 |
| 20260830122807 | 68 | 53 | 0.0 | 0.0 | 0.00 | 0.00 | 0.00 | 82 | 1009.4 |
| 20260830122302 | 68 | 53 | 0.0 | 0.0 | 0.00 | 0.00 | 0.00 | 83 | 1009.8 |
| 20260830121757 | 68 | 53 | 0.0 | 0.0 | 0.00 | 0.00 | 0.00 | 82 | 1009.8 |
| 20260830121256 | 68 | 53 | 0.0 | 0.0 | 0.00 | 0.00 | 0.00 | 82 | 1009.4 |
| 20260830120751 | 68 | 53 | 0.0 | 0.0 | 0.00 | 0.00 | 0.00 | 82 | 1009.8 |
| 20260830120247 | 68 | 53 | 0.0 | 0.0 | 0.00 | 0.00 | 0.00 | 83 | 1009.8 |
| 20260830115744 | 68 | 53 | 0.0 | 0.0 | 0.00 | 0.00 | 0.00 | 83 | 1009.8 |
| 20260830115239 | 68 | 53 | 0.0 | 0.0 | 0.00 | 0.00 | 0.00 | 83 | 1009.8 |
| 20260830114735 | 68 | 53 | 0.0 | 0.0 | 0.00 | 0.00 | 0.00 | 83 | 1009.8 |
| 20260830114230 | 68 | 53 | 0.0 | 0.0 | 0.00 | 0.00 | 0.00 | 82 | 1009.8 |
| 20260830113725 | 68 | 53 | 0.0 | 0.0 | 0.00 | 0.00 | 0.00 | 82 | 1009.4 |
| 20260830113220 | 68 | 53 | 0.0 | 0.0 | 0.00 | 0.00 | 0.00 | 82 | 1009.4 |
| 20260830112716 | 68 | 53 | 0.0 | 0.0 | 0.00 | 0.00 | 0.00 | 82 | 1009.4 |
| 20260830112212 | 68 | 53 | 0.0 | 0.0 | 0.00 | 0.00 | 0.00 | 81 | 1009.4 |
| 20260830111708 | 68 | 53 | 0.0 | 0.0 | 0.00 | 0.00 | 0.00 | 80 | 1009.8 |
| 20260830111203 | 69 | 53 | 0.0 | 0.0 | 0.00 | 0.00 | 0.00 | 80 | 1009.8 |
| 20260830110657 | 69 | 53 | 0.0 | 0.0 | 0.00 | 0.00 | 0.00 | 79 | 1010.1 |
| 20260830110153 | 69 | 53 | 0.0 | 0.0 | 0.00 | 0.00 | 0.00 | 79 | 1009.8 |
| 20260830105653 | 69 | 53 | 0.0 | 0.0 | 0.00 | 0.00 | 0.00 | 78 | 1009.8 |
| 20260830105148 | 69 | 53 | 0.0 | 0.0 | 0.00 | 0.00 | 0.00 | 78 | 1009.8 |
| 20260830104645 | 69 | 53 | 0.0 | 0.0 | 0.00 | 0.00 | 0.00 | 78 | 1009.8 |
| 20260830104142 | 69 | 53 | 0.0 | 0.0 | 0.00 | 0.00 | 0.00 | 78 | 1009.8 |
| 20260830103641 | 69 | 53 | 1.0 | 1.0 | 0.00 | 0.00 | 0.00 | 79 | 1009.4 |
| 20260830103136 | 69 | 53 | 0.0 | 0.0 | 0.00 | 0.00 | 0.00 | 79 | 1009.8 |
| 20260830102635 | 69 | 53 | 0.0 | 0.0 | 0.00 | 0.00 | 0.00 | 79 | 1009.8 |
| 20260830102131 | 69 | 53 | 0.0 | 0.0 | 0.00 | 0.00 | 0.00 | 79 | 1009.4 |
| 20260830101627 | 69 | 53 | 0.0 | 0.0 | 0.00 | 0.00 | 0.00 | 79 | 1009.8 |
| 20260830101126 | 69 | 53 | 0.0 | 0.0 | 0.00 | 0.00 | 0.00 | 79 | 1010.1 |
| 20260830100621 | 69 | 53 | 0.0 | 0.0 | 0.00 | 0.00 | 0.00 | 79 | 1010.1 |
| 20260830100115 | 69 | 53 | 0.0 | 0.0 | 0.00 | 0.00 | 0.00 | 79 | 1009.8 |
| 20260830095614 | 69 | 53 | 0.0 | 0.0 | 0.00 | 0.00 | 0.00 | 79 | 1009.8 |
| 20260830095110 | 69 | 53 | 0.0 | 1.0 | 0.00 | 0.00 | 0.00 | 79 | 1010.1 |
| 20260830094601 | 69 | 53 | 0.0 | 0.0 | 0.00 | 0.00 | 0.00 | 78 | 1009.8 |
| 20260830094056 | 69 | 53 | 0.0 | 0.0 | 0.00 | 0.00 | 0.00 | 78 | 1010.1 |
| 20260830093551 | 69 | 53 | 0.0 | 0.0 | 0.00 | 0.00 | 0.00 | 78 | 1009.8 |
| 20260830093047 | 70 | 53 | 0.0 | 0.0 | 0.00 | 0.00 | 0.00 | 78 | 1009.8 |
| 20260830092541 | 70 | 53 | 0.0 | 0.0 | 0.00 | 0.00 | 0.00 | 78 | 1009.8 |
| 20260830092039 | 70 | 53 | 0.0 | 0.0 | 0.00 | 0.00 | 0.00 | 78 | 1010.1 |
| 20260830091534 | 70 | 53 | 0.0 | 0.0 | 0.00 | 0.00 | 0.00 | 77 | 1009.8 |
| 20260830091033 | 70 | 53 | 0.0 | 0.0 | 0.00 | 0.00 | 0.00 | 77 | 1010.1 |
| 20260830090528 | 70 | 53 | 0.0 | 0.0 | 0.00 | 0.00 | 0.00 | 77 | 1010.1 |
| 20260830090023 | 70 | 53 | 0.0 | 0.0 | 0.00 | 0.00 | 0.00 | 77 | 1010.1 |
| 20260830085517 | 70 | 53 | 1.0 | 1.0 | 0.00 | 0.00 | 0.00 | 78 | 1010.1 |
| 20260830085014 | 70 | 53 | 0.0 | 0.0 | 0.00 | 0.00 | 0.00 | 78 | 1010.1 |
| 20260830084509 | 70 | 53 | 0.0 | 0.0 | 0.00 | 0.00 | 0.00 | 77 | 1010.1 |
| 20260830084004 | 70 | 53 | 0.0 | 1.0 | 0.00 | 0.00 | 0.00 | 77 | 1010.1 |
| 20260830083459 | 70 | 53 | 0.0 | 0.0 | 0.00 | 0.00 | 0.00 | 77 | 1010.1 |
| 20260830082958 | 70 | 53 | 0.0 | 1.0 | 0.00 | 0.00 | 0.00 | 78 | 1010.1 |
| 20260830082454 | 70 | 53 | 1.0 | 1.0 | 0.00 | 0.00 | 0.00 | 77 | 1010.1 |
| 20260830081949 | 70 | 53 | 0.0 | 1.0 | 0.00 | 0.00 | 0.00 | 77 | 1010.5 |
| 20260830081444 | 70 | 53 | 0.0 | 0.0 | 0.00 | 0.00 | 0.00 | 77 | 1010.5 |
| 20260830080944 | 70 | 53 | 0.0 | 0.0 | 0.00 | 0.00 | 0.00 | 77 | 1010.5 |
| 20260830080440 | 70 | 53 | 0.0 | 0.0 | 0.00 | 0.00 | 0.00 | 77 | 1010.5 |
| 20260830075939 | 70 | 53 | 0.0 | 1.0 | 0.00 | 0.00 | 0.00 | 77 | 1010.5 |
| 20260830075434 | 70 | 53 | 0.0 | 0.0 | 0.00 | 0.00 | 0.00 | 77 | 1010.5 |
| 20260830074930 | 70 | 53 | 0.0 | 0.0 | 0.00 | 0.00 | 0.00 | 77 | 1010.1 |
| 20260830074426 | 70 | 53 | 0.0 | 1.0 | 0.00 | 0.00 | 0.00 | 77 | 1010.5 |
| 20260830073921 | 70 | 53 | 0.0 | 0.0 | 0.00 | 0.00 | 0.00 | 77 | 1010.5 |
| 20260830073416 | 70 | 53 | 0.0 | 1.0 | 0.00 | 0.00 | 0.00 | 77 | 1010.5 |
| 20260830072912 | 70 | 53 | 1.0 | 1.0 | 0.00 | 0.00 | 0.00 | 78 | 1010.5 |
| 20260830072408 | 70 | 53 | 0.0 | 0.0 | 0.00 | 0.00 | 0.00 | 78 | 1010.5 |
| 20260830071902 | 70 | 53 | 0.0 | 0.0 | 0.00 | 0.00 | 0.00 | 78 | 1010.5 |
| 20260830071402 | 70 | 53 | 0.0 | 0.0 | 0.00 | 0.00 | 0.00 | 77 | 1010.5 |
| 20260830070900 | 70 | 53 | 0.0 | 0.0 | 0.00 | 0.00 | 0.00 | 77 | 1010.5 |
| 20260830070355 | 70 | 53 | 0.0 | 0.0 | 0.00 | 0.00 | 0.00 | 77 | 1010.5 |
| 20260830065854 | 70 | 53 | 0.0 | 1.0 | 0.00 | 0.00 | 0.00 | 77 | 1010.5 |
| 20260830065349 | 70 | 53 | 1.0 | 1.0 | 0.00 | 0.00 | 0.00 | 77 | 1010.5 |
| 20260830064847 | 70 | 53 | 0.0 | 0.0 | 0.00 | 0.00 | 0.00 | 77 | 1010.8 |
| 20260830064343 | 70 | 53 | 0.0 | 0.0 | 0.00 | 0.00 | 0.00 | 77 | 1010.8 |
| 20260830063841 | 70 | 53 | 0.0 | 0.0 | 0.00 | 0.00 | 0.00 | 77 | 1010.8 |
| 20260830063331 | 70 | 53 | 1.0 | 1.0 | 0.00 | 0.00 | 0.00 | 77 | 1010.5 |
| 20260830062826 | 70 | 53 | 0.0 | 0.0 | 0.00 | 0.00 | 0.00 | 77 | 1010.8 |
| 20260830062325 | 70 | 53 | 0.0 | 0.0 | 0.00 | 0.00 | 0.00 | 77 | 1010.8 |
| 20260830061820 | 70 | 53 | 0.0 | 1.0 | 0.00 | 0.00 | 0.00 | 77 | 1011.1 |
| 20260830061315 | 70 | 53 | 1.0 | 2.0 | 0.00 | 0.00 | 0.00 | 77 | 1010.8 |
| 20260830060812 | 70 | 53 | 1.0 | 1.0 | 0.00 | 0.00 | 0.00 | 77 | 1011.1 |
| 20260830060308 | 70 | 53 | 0.0 | 0.0 | 0.00 | 0.00 | 0.00 | 76 | 1011.1 |
| 20260830055808 | 70 | 53 | 0.0 | 0.0 | 0.00 | 0.00 | 0.00 | 76 | 1010.8 |
| 20260830055306 | 70 | 53 | 1.0 | 1.0 | 0.00 | 0.00 | 0.00 | 76 | 1011.1 |
| 20260830054804 | 70 | 53 | 0.0 | 0.0 | 0.00 | 0.00 | 0.00 | 76 | 1011.1 |
| 20260830054300 | 70 | 53 | 0.0 | 0.0 | 0.00 | 0.00 | 0.00 | 76 | 1011.1 |
| 20260830053756 | 70 | 53 | 0.0 | 0.0 | 0.00 | 0.00 | 0.00 | 76 | 1011.1 |
| 20260830053256 | 70 | 53 | 1.0 | 1.0 | 0.00 | 0.00 | 0.00 | 76 | 1011.5 |
| 20260830052754 | 70 | 53 | 0.0 | 0.0 | 0.00 | 0.00 | 0.00 | 76 | 1011.1 |
| 20260830052245 | 70 | 53 | 0.0 | 0.0 | 0.00 | 0.00 | 0.00 | 76 | 1011.1 |
| 20260830051740 | 70 | 53 | 0.0 | 0.0 | 0.00 | 0.00 | 0.00 | 76 | 1011.5 |
| 20260830051235 | 70 | 53 | 0.0 | 1.0 | 0.00 | 0.00 | 0.00 | 76 | 1011.1 |
| 20260830050734 | 70 | 53 | 1.0 | 1.0 | 0.00 | 0.00 | 0.00 | 76 | 1011.1 |
| 20260830050229 | 70 | 53 | 0.0 | 0.0 | 0.00 | 0.00 | 0.00 | 76 | 1011.1 |
| 20260830045727 | 70 | 53 | 0.0 | 0.0 | 0.00 | 0.24 | 0.24 | 76 | 1011.5 |
| 20260830045222 | 70 | 53 | 0.0 | 1.0 | 0.00 | 0.24 | 0.24 | 76 | 1011.5 |
| 20260830044721 | 71 | 53 | 0.0 | 1.0 | 0.00 | 0.24 | 0.24 | 76 | 1011.5 |
| 20260830044218 | 71 | 53 | 0.0 | 0.0 | 0.00 | 0.24 | 0.24 | 75 | 1011.5 |
| 20260830043712 | 71 | 53 | 0.0 | 1.0 | 0.00 | 0.24 | 0.24 | 75 | 1011.5 |
| 20260830043207 | 71 | 53 | 0.0 | 0.0 | 0.00 | 0.24 | 0.24 | 75 | 1011.5 |
| 20260830042704 | 71 | 53 | 0.0 | 1.0 | 0.00 | 0.24 | 0.24 | 75 | 1011.5 |
| 20260830042200 | 71 | 53 | 0.0 | 0.0 | 0.00 | 0.24 | 0.24 | 75 | 1011.5 |
| 20260830041658 | 71 | 53 | 1.0 | 1.0 | 0.00 | 0.24 | 0.24 | 75 | 1011.5 |
| 20260830041158 | 71 | 53 | 0.0 | 1.0 | 0.00 | 0.24 | 0.24 | 74 | 1011.5 |
| 20260830040653 | 71 | 53 | 0.0 | 0.0 | 0.00 | 0.24 | 0.24 | 75 | 1011.8 |
| 20260830040150 | 71 | 53 | 0.0 | 0.0 | 0.00 | 0.24 | 0.24 | 74 | 1011.5 |
| 20260830035648 | 71 | 53 | 0.0 | 0.0 | 0.00 | 0.24 | 0.24 | 74 | 1011.5 |
| 20260830035142 | 71 | 53 | 0.0 | 0.0 | 0.00 | 0.24 | 0.24 | 74 | 1011.5 |
| 20260830034637 | 71 | 53 | 0.0 | 0.0 | 0.00 | 0.24 | 0.24 | 74 | 1011.5 |
| 20260830034137 | 71 | 53 | 1.0 | 1.0 | 0.00 | 0.24 | 0.24 | 73 | 1011.5 |
| 20260830033633 | 71 | 53 | 0.0 | 0.0 | 0.00 | 0.24 | 0.24 | 73 | 1011.8 |
| 20260830033128 | 71 | 53 | 0.0 | 0.0 | 0.00 | 0.24 | 0.24 | 73 | 1012.2 |
| 20260830032628 | 71 | 53 | 0.0 | 0.0 | 0.00 | 0.24 | 0.24 | 73 | 1011.8 |
| 20260830032123 | 72 | 30 | 0.0 | 0.0 | 0.00 | 0.24 | 0.24 | 73 | 1011.8 |
| 20260830031618 | 72 | 30 | 0.0 | 0.0 | 0.00 | 0.24 | 0.24 | 73 | 1011.5 |
| 20260830031113 | 72 | 53 | 0.0 | 1.0 | 0.00 | 0.24 | 0.24 | 73 | 1011.8 |